N5TM-4 Weather Reports


Display with metric or nautical units.
time (UTC)temp
F
wind
direction
speed
MPH
gust
MPH
rain 1hr
in
rain 24hr
in
rain mn
in
humidity
%
barometer
mb
20260904095518 79 179 0.0 1.0 0.00 0.33 0.00 92 1012.8
20260904095015 79 179 0.0 1.0 0.00 0.33 0.00 92 1012.8
20260904094514 79 179 0.0 1.0 0.00 0.33 0.00 92 1012.7
20260904094014 79 179 0.0 2.0 0.00 0.33 0.00 92 1012.7
20260904093517 79 179 0.0 2.0 0.00 0.33 0.00 92 1012.7
20260904093015 79 179 0.0 2.0 0.00 0.33 0.00 92 1012.6
20260904092516 79 179 0.0 1.0 0.00 0.33 0.00 92 1012.6
20260904092013 79 179 0.0 1.0 0.00 0.33 0.00 92 1012.6
20260904091514 79 179 0.0 1.0 0.00 0.33 0.00 92 1012.6
20260904091013 79 179 0.0 1.0 0.00 0.33 0.00 92 1012.6
20260904090512 79 179 0.0 1.0 0.00 0.33 0.00 92 1012.7
20260904090012 79 179 0.0 0.0 0.00 0.33 0.00 92 1012.7
20260904085513 79 179 0.0 0.0 0.00 0.33 0.00 91 1012.7
20260904085011 79 179 0.0 0.0 0.00 0.33 0.00 91 1012.7
20260904084512 79 179 0.0 0.0 0.00 0.33 0.00 91 1012.7
20260904084010 79 179 0.0 0.0 0.00 0.33 0.00 91 1012.7
20260904083510 79 179 0.0 0.0 0.00 0.33 0.00 91 1012.7
20260904083014 79 179 0.0 0.0 0.00 0.33 0.00 91 1012.7
20260904082510 79 179 0.0 0.0 0.00 0.33 0.00 91 1012.7
20260904082009 79 179 0.0 0.0 0.00 0.33 0.00 91 1012.7
20260904081514 79 179 0.0 0.0 0.00 0.33 0.00 91 1012.7
20260904081008 79 179 0.0 0.0 0.00 0.33 0.00 91 1012.8
20260904080508 79 179 0.0 0.0 0.00 0.33 0.00 91 1012.8
20260904080008 79 179 0.0 0.0 0.00 0.33 0.00 91 1012.8
20260904075507 79 179 0.0 1.0 0.00 0.33 0.00 91 1012.8
20260904075009 79 179 0.0 1.0 0.00 0.33 0.00 91 1012.8
20260904074511 79 179 0.0 0.0 0.00 0.33 0.00 90 1012.8
20260904074007 79 179 0.0 0.0 0.00 0.33 0.00 90 1012.8
20260904073510 79 179 0.0 0.0 0.00 0.33 0.00 90 1013.0
20260904073007 79 179 0.0 2.0 0.00 0.33 0.00 90 1013.0
20260904072506 79 179 0.0 2.0 0.00 0.33 0.00 91 1012.9
20260904072006 79 179 0.0 2.0 0.00 0.33 0.00 91 1012.9
20260904071505 79 179 0.0 1.0 0.00 0.33 0.00 91 1013.0
20260904071004 79 179 0.0 1.0 0.00 0.33 0.00 91 1013.1
20260904070503 79 179 0.0 1.0 0.00 0.33 0.00 91 1013.1
20260904070004 79 179 0.0 2.0 0.00 0.33 0.00 91 1013.1
20260904065504 79 179 0.0 2.0 0.00 0.33 0.00 91 1013.1
20260904065003 79 179 0.0 3.0 0.00 0.33 0.00 91 1013.1
20260904064502 79 179 0.0 3.0 0.00 0.33 0.00 91 1013.1
20260904064001 79 179 1.0 3.0 0.00 0.33 0.00 91 1013.3
20260904063501 79 188 1.0 4.0 0.00 0.33 0.00 91 1013.3
20260904063001 79 159 1.0 5.0 0.00 0.33 0.00 91 1013.2
20260904062601 79 155 1.0 5.0 0.00 0.33 0.00 91 1013.2
20260904062100 79 155 1.0 3.0 0.00 0.33 0.00 91 1013.2
20260904061600 79 155 1.0 5.0 0.00 0.33 0.00 91 1013.2
20260904061103 79 155 1.0 5.0 0.00 0.33 0.00 91 1013.1
20260904060702 79 155 1.0 3.0 0.00 0.33 0.00 91 1013.2
20260904060059 79 155 0.0 2.0 0.00 0.33 0.00 91 1013.1
20260904055558 79 155 0.0 2.0 0.00 0.33 0.00 91 1013.1
20260904055101 79 155 1.0 2.0 0.00 0.33 0.00 91 1013.1
20260904054559 79 155 1.0 3.0 0.00 0.33 0.00 91 1013.1
20260904054101 79 155 1.0 3.0 0.00 0.33 0.00 91 1013.1
20260904053556 79 155 1.0 3.0 0.00 0.33 0.00 91 1013.0
20260904053100 79 155 0.0 3.0 0.00 0.33 0.00 91 1013.1
20260904052558 79 155 1.0 3.0 0.00 0.33 0.00 91 1013.1
20260904052055 79 155 0.0 2.0 0.00 0.33 0.00 91 1013.0
20260904051554 79 155 0.0 2.0 0.00 0.33 0.00 91 1013.0
20260904051051 79 155 0.0 2.0 0.00 0.33 0.00 91 1013.1
20260904050550 79 155 0.0 2.0 0.00 0.33 0.00 91 1013.1
20260904050103 80 155 0.0 2.0 0.00 0.33 0.00 91 1013.1
20260904045549 80 155 0.0 3.0 0.00 0.33 0.33 91 1013.1
20260904045049 80 155 1.0 3.0 0.00 0.33 0.33 90 1013.1
20260904044555 80 155 0.0 3.0 0.00 0.33 0.33 90 1013.1
20260904044048 80 155 1.0 3.0 0.00 0.33 0.33 90 1013.2
20260904043548 80 155 0.0 5.0 0.00 0.33 0.33 90 1013.1
20260904043048 80 155 0.0 5.0 0.00 0.33 0.33 90 1013.1
20260904042548 80 155 0.0 3.0 0.00 0.33 0.33 90 1013.0
20260904042051 80 155 1.0 3.0 0.00 0.33 0.33 89 1013.0
20260904041549 80 155 1.0 5.0 0.00 0.33 0.33 89 1013.0
20260904041047 80 155 1.0 5.0 0.00 0.33 0.33 89 1013.1
20260904040546 80 132 1.0 5.0 0.00 0.33 0.33 89 1013.1
20260904040049 80 146 1.0 4.0 0.00 0.33 0.33 89 1013.1
20260904035547 80 148 1.0 5.0 0.00 0.33 0.33 89 1013.1
20260904035046 80 146 1.0 4.0 0.00 0.33 0.33 89 1013.1
20260904034600 80 137 1.0 3.0 0.00 0.33 0.33 89 1013.1
20260904034046 80 137 1.0 3.0 0.00 0.33 0.33 89 1013.2
20260904033549 80 137 1.0 3.0 0.00 0.33 0.33 89 1013.2
20260904033046 80 160 0.0 5.0 0.00 0.33 0.33 89 1013.2
20260904032546 80 160 1.0 5.0 0.00 0.33 0.33 89 1013.2
20260904032045 80 163 1.0 3.0 0.00 0.33 0.33 89 1013.2
20260904031546 80 163 1.0 3.0 0.00 0.33 0.33 89 1013.1
20260904031045 80 163 1.0 3.0 0.00 0.33 0.33 89 1013.2
20260904030545 80 163 1.0 3.0 0.00 0.33 0.33 89 1013.1
20260904030045 80 163 1.0 3.0 0.00 0.33 0.33 89 1013.2
20260904025545 80 163 0.0 3.0 0.00 0.33 0.33 89 1013.1
20260904025045 80 163 0.0 2.0 0.00 0.33 0.33 89 1013.1
20260904024547 80 163 1.0 3.0 0.00 0.33 0.33 89 1013.1
20260904024044 80 163 1.0 3.0 0.00 0.33 0.33 90 1012.9
20260904023544 80 163 2.0 4.0 0.00 0.33 0.33 90 1012.8
20260904023045 80 169 2.0 4.0 0.00 0.33 0.33 90 1012.8
20260904022544 80 126 1.0 5.0 0.00 0.33 0.33 90 1012.8
20260904022044 80 161 1.0 5.0 0.00 0.33 0.33 90 1012.7
20260904021544 80 163 1.0 3.0 0.00 0.33 0.33 90 1012.6
20260904021043 80 163 1.0 5.0 0.00 0.33 0.33 90 1012.6
20260904020543 79 163 1.0 5.0 0.00 0.33 0.33 90 1012.5
20260904020047 79 105 1.0 3.0 0.00 0.33 0.33 90 1012.5
20260904015542 79 105 1.0 3.0 0.00 0.33 0.33 90 1012.5
20260904015044 79 105 0.0 2.0 0.00 0.33 0.33 90 1012.5
20260904014542 79 105 0.0 2.0 0.00 0.33 0.33 90 1012.4
20260904014042 79 105 1.0 2.0 0.00 0.33 0.33 90 1012.3
20260904013544 79 105 0.0 2.0 0.00 0.33 0.33 90 1012.2
20260904013042 79 105 0.0 1.0 0.00 0.33 0.33 89 1012.3
20260904012541 79 105 0.0 1.0 0.00 0.33 0.33 89 1012.2
20260904012043 79 105 0.0 1.0 0.00 0.33 0.33 89 1012.2
20260904011541 79 105 0.0 1.0 0.00 0.33 0.33 89 1012.2
20260904011040 79 105 0.0 1.0 0.00 0.33 0.33 89 1012.1
20260904010544 79 105 0.0 2.0 0.00 0.33 0.33 89 1012.1
20260904010043 79 105 0.0 2.0 0.00 0.33 0.33 89 1012.1
20260904005540 79 105 0.0 2.0 0.00 0.33 0.33 89 1012.1
20260904005040 79 105 0.0 2.0 0.00 0.33 0.33 89 1012.0
20260904004540 79 105 1.0 2.0 0.00 0.33 0.33 89 1012.0
20260904004040 79 105 0.0 3.0 0.00 0.33 0.33 89 1012.1
20260904003542 79 105 1.0 4.0 0.00 0.33 0.33 89 1012.1
20260904003039 79 84 1.0 4.0 0.00 0.33 0.33 89 1012.1
20260904002539 79 83 0.0 2.0 0.00 0.33 0.33 89 1012.2
20260904002039 79 83 0.0 2.0 0.00 0.33 0.33 89 1012.2
20260904001538 79 83 0.0 2.0 0.00 0.33 0.33 89 1012.2
20260904001037 79 83 0.0 2.0 0.00 0.33 0.33 89 1012.3
20260904000537 79 83 0.0 2.0 0.00 0.33 0.33 89 1012.3
20260904000038 79 83 0.0 2.0 0.00 0.33 0.33 89 1012.3
20260903235537 79 83 0.0 2.0 0.00 0.33 0.33 89 1012.2
20260903235040 79 83 0.0 2.0 0.00 0.33 0.33 90 1012.2
20260903234537 79 83 0.0 4.0 0.00 0.33 0.33 90 1012.2
20260903234036 79 83 0.0 4.0 0.00 0.33 0.33 90 1012.2
20260903233536 79 74 1.0 3.0 0.00 0.33 0.33 90 1012.3
20260903233037 79 74 0.0 2.0 0.00 0.33 0.33 90 1012.4
20260903232535 79 74 0.0 3.0 0.00 0.33 0.33 90 1012.5
20260903232035 79 74 1.0 3.0 0.00 0.33 0.33 90 1012.4
20260903231543 79 74 0.0 3.0 0.00 0.33 0.33 90 1012.5
20260903231034 79 74 1.0 3.0 0.00 0.33 0.33 90 1012.5
20260903230534 79 73 0.0 3.0 0.00 0.33 0.33 90 1012.5
20260903230039 79 71 0.0 3.0 0.00 0.33 0.33 90 1012.6
20260903225534 79 87 1.0 5.0 0.00 0.33 0.33 90 1012.5
20260903225033 79 86 1.0 5.0 0.00 0.33 0.33 90 1012.5
20260903224533 79 43 1.0 5.0 0.00 0.33 0.33 90 1012.5
20260903224037 78 71 1.0 4.0 0.01 0.33 0.33 90 1012.6
20260903223533 78 67 1.0 3.0 0.01 0.33 0.33 90 1012.6
20260903223041 78 17 1.0 3.0 0.01 0.33 0.33 90 1012.5
20260903222533 78 71 0.0 3.0 0.02 0.33 0.33 90 1012.6
20260903222033 78 71 0.0 3.0 0.02 0.33 0.33 90 1012.5
20260903221539 78 71 0.0 3.0 0.03 0.33 0.33 90 1012.4
20260903221031 78 71 1.0 4.0 0.04 0.33 0.33 90 1012.5
20260903220531 78 38 1.0 4.0 0.04 0.33 0.33 90 1012.5
20260903220054 78 86 0.0 6.0 0.05 0.33 0.33 91 1012.6
20260903215530 78 86 2.0 8.0 0.06 0.33 0.33 90 1012.7
20260903215028 78 82 3.0 8.0 0.07 0.33 0.33 90 1012.9
20260903214527 79 105 2.0 7.0 0.09 0.33 0.33 90 1013.1
20260903214028 79 80 2.0 7.0 0.08 0.32 0.32 90 1013.2
20260903213528 79 113 0.0 4.0 0.09 0.32 0.32 91 1013.5
20260903213029 79 346 0.0 2.0 0.09 0.32 0.32 90 1013.6
20260903212527 79 333 0.0 2.0 0.09 0.31 0.31 90 1013.5
20260903212030 79 333 0.0 1.0 0.09 0.31 0.31 90 1013.5
20260903211526 79 333 0.0 1.0 0.08 0.30 0.30 90 1013.5
20260903211026 79 333 0.0 1.0 0.08 0.28 0.28 90 1013.4
20260903210529 79 333 0.0 1.0 0.07 0.28 0.28 89 1013.3
20260903210026 79 333 0.0 2.0 0.07 0.28 0.28 90 1013.3
20260903205525 79 333 0.0 2.0 0.06 0.27 0.27 90 1013.5
20260903205026 79 333 0.0 2.0 0.05 0.26 0.26 90 1013.6
20260903204526 79 333 0.0 2.0 0.03 0.24 0.24 90 1013.6
20260903204025 79 333 0.0 2.0 0.03 0.24 0.24 90 1013.5
20260903203528 79 333 0.0 2.0 0.02 0.23 0.23 90 1013.5
20260903203026 79 333 0.0 2.0 0.01 0.22 0.22 90 1013.5
20260903202525 79 333 0.0 2.0 0.01 0.22 0.22 90 1013.7
20260903202027 78 333 0.0 2.0 0.01 0.22 0.22 89 1013.9
20260903201525 78 333 0.0 2.0 0.01 0.22 0.22 89 1013.9
20260903201024 78 333 0.0 3.0 0.00 0.21 0.21 89 1013.7
20260903200524 78 333 0.0 3.0 0.02 0.21 0.21 89 1013.7
20260903200038 78 333 0.0 5.0 0.04 0.21 0.21 89 1013.7
20260903195527 78 355 2.0 5.0 0.09 0.21 0.21 88 1013.6
20260903195023 78 325 1.0 3.0 0.09 0.21 0.21 88 1013.7
20260903194536 78 331 0.0 3.0 0.10 0.21 0.21 88 1013.7
20260903194024 78 327 1.0 3.0 0.18 0.21 0.21 88 1013.7
20260903193523 78 313 0.0 4.0 0.21 0.21 0.21 88 1013.8
20260903193023 78 312 2.0 4.0 0.21 0.21 0.21 88 1014.0
20260903192523 78 263 1.0 4.0 0.21 0.21 0.21 88 1014.1
20260903192022 78 317 0.0 8.0 0.21 0.21 0.21 87 1014.0
20260903191522 78 78 2.0 8.0 0.21 0.21 0.21 85 1014.0
20260903191022 78 55 1.0 5.0 0.21 0.21 0.21 85 1014.0
20260903190523 78 56 1.0 6.0 0.19 0.19 0.19 85 1014.0
20260903190023 78 90 0.0 3.0 0.17 0.17 0.17 85 1014.3
20260903185520 78 104 0.0 7.0 0.12 0.12 0.12 84 1014.4
20260903185020 79 105 2.0 8.0 0.12 0.12 0.12 84 1014.2
20260903184518 80 114 4.0 8.0 0.10 0.10 0.10 80 1014.2
20260903184018 83 86 3.0 9.0 0.02 0.02 0.02 77 1014.2
20260903183517 84 78 4.0 9.0 0.00 0.00 0.00 74 1013.9
20260903183032 84 66 3.0 9.0 0.00 0.00 0.00 73 1013.9
20260903182523 85 100 3.0 10.0 0.00 0.00 0.00 71 1014.2
20260903182017 85 90 3.0 10.0 0.00 0.00 0.00 71 1014.1
20260903181520 86 129 3.0 11.0 0.00 0.00 0.00 71 1013.9
20260903181016 87 133 2.0 12.0 0.00 0.00 0.00 69 1013.9
20260903180516 89 100 3.0 12.0 0.00 0.00 0.00 67 1014.2
20260903180016 90 125 2.0 3.0 0.00 0.00 0.00 65 1014.0
20260903175516 90 125 0.0 4.0 0.00 0.00 0.00 65 1013.9
20260903175016 90 125 1.0 4.0 0.00 0.00 0.00 65 1013.8
20260903174521 90 125 0.0 4.0 0.00 0.00 0.00 64 1013.9
20260903174016 91 125 2.0 7.0 0.00 0.00 0.00 63 1014.1
20260903173515 92 131 2.0 7.0 0.00 0.00 0.00 63 1014.0
20260903173015 94 173 1.0 6.0 0.00 0.00 0.00 59 1013.9
20260903172515 94 182 1.0 9.0 0.00 0.00 0.00 58 1013.9
20260903172016 96 173 1.0 9.0 0.00 0.00 0.00 56 1013.6
20260903171520 99 219 0.0 3.0 0.00 0.00 0.00 53 1013.7
20260903171014 100 190 0.0 5.0 0.00 0.00 0.00 51 1013.9
20260903170514 100 306 2.0 5.0 0.00 0.00 0.00 50 1014.0
20260903170015 101 307 2.0 6.0 0.00 0.00 0.00 51 1014.0
20260903165512 101 176 1.0 6.0 0.00 0.00 0.00 51 1014.2
20260903165010 100 286 2.0 6.0 0.00 0.00 0.00 53 1014.3
20260903164511 99 209 0.0 10.0 0.00 0.00 0.00 54 1014.3
20260903164011 99 302 3.0 9.0 0.00 0.00 0.00 55 1014.3
20260903163508 97 285 2.0 7.0 0.00 0.00 0.00 58 1014.4
20260903163014 97 299 1.0 5.0 0.00 0.00 0.00 59 1014.3
20260903162503 95 220 1.0 5.0 0.00 0.00 0.00 62 1014.3
20260903162004 94 287 1.0 4.0 0.00 0.00 0.00 63 1014.3
20260903161502 92 196 1.0 4.0 0.00 0.00 0.00 64 1014.4
20260903161059 92 257 1.0 3.0 0.00 0.00 0.00 66 1014.5
20260903160558 91 277 1.0 3.0 0.00 0.00 0.00 68 1014.4
20260903160056 90 265 1.0 5.0 0.00 0.00 0.00 70 1014.4
20260903155555 89 215 1.0 5.0 0.00 0.00 0.00 72 1014.4
20260903155054 88 171 2.0 5.0 0.00 0.00 0.00 73 1014.4
20260903154553 88 208 1.0 6.0 0.00 0.00 0.00 74 1014.3
20260903154053 88 225 1.0 6.0 0.00 0.00 0.00 74 1014.3
20260903153555 88 184 1.0 4.0 0.00 0.00 0.00 73 1014.3
20260903153052 88 165 0.0 6.0 0.00 0.00 0.00 74 1014.3
20260903152552 87 165 0.0 6.0 0.00 0.00 0.00 74 1014.3
20260903152054 88 167 2.0 5.0 0.00 0.00 0.00 75 1014.4
20260903151549 87 170 2.0 5.0 0.00 0.00 0.00 75 1014.5
20260903151047 87 179 1.0 3.0 0.00 0.00 0.00 77 1014.5
20260903150546 86 192 1.0 3.0 0.00 0.00 0.00 78 1014.5
20260903150045 85 196 1.0 6.0 0.00 0.00 0.00 80 1014.6
20260903145547 85 215 1.0 6.0 0.00 0.00 0.00 81 1014.6
20260903145043 84 165 2.0 5.0 0.00 0.00 0.00 81 1014.7
20260903144543 84 159 3.0 7.0 0.00 0.00 0.00 80 1014.6
20260903144042 84 179 2.0 7.0 0.00 0.00 0.00 81 1014.6
20260903143540 84 179 3.0 5.0 0.00 0.00 0.00 82 1014.6
20260903143043 84 180 3.0 5.0 0.00 0.00 0.00 82 1014.6
20260903142544 83 178 0.0 5.0 0.00 0.00 0.00 84 1014.6
20260903142039 83 175 2.0 5.0 0.00 0.00 0.00 84 1014.6
20260903141538 83 149 1.0 5.0 0.00 0.00 0.00 84 1014.5
20260903141041 83 151 1.0 8.0 0.00 0.00 0.00 85 1014.5
20260903140538 82 150 1.0 8.0 0.00 0.00 0.00 85 1014.5
20260903140037 82 145 1.0 4.0 0.00 0.00 0.00 86 1014.5
20260903135537 82 146 1.0 4.0 0.00 0.00 0.00 87 1014.5
20260903135037 81 136 1.0 4.0 0.00 0.00 0.00 87 1014.5
20260903134543 81 135 0.0 4.0 0.00 0.00 0.00 87 1014.4
20260903134036 81 133 0.0 4.0 0.00 0.00 0.00 87 1014.5
20260903133536 81 130 1.0 3.0 0.00 0.00 0.00 87 1014.5
20260903133046 81 130 0.0 3.0 0.00 0.00 0.00 88 1014.5
20260903132536 81 130 1.0 3.0 0.00 0.00 0.00 88 1014.5
20260903132037 81 130 1.0 3.0 0.00 0.00 0.00 88 1014.5
20260903131540 80 129 0.0 2.0 0.00 0.00 0.00 88 1014.4
20260903131035 80 129 0.0 2.0 0.00 0.00 0.00 88 1014.4
20260903130536 80 129 0.0 3.0 0.00 0.00 0.00 88 1014.3
20260903130035 80 129 1.0 3.0 0.00 0.00 0.00 88 1014.2
20260903125535 80 128 1.0 3.0 0.00 0.00 0.00 88 1014.2
20260903125035 80 128 0.0 3.0 0.00 0.00 0.00 88 1014.1
20260903124554 80 173 0.0 2.0 0.00 0.00 0.00 87 1014.0
20260903124034 80 173 0.0 2.0 0.00 0.00 0.00 87 1013.9
20260903123534 80 173 1.0 3.0 0.00 0.00 0.00 86 1013.9
20260903123034 80 173 0.0 3.0 0.00 0.00 0.00 86 1013.8
20260903122535 80 173 0.0 3.0 0.00 0.00 0.00 85 1013.7
20260903122034 80 173 1.0 3.0 0.00 0.00 0.00 85 1013.6
20260903121544 80 173 0.0 3.0 0.00 0.00 0.00 84 1013.6
20260903121035 80 173 0.0 4.0 0.00 0.00 0.00 84 1013.6
20260903120532 80 173 1.0 4.0 0.00 0.00 0.00 84 1013.6
20260903120032 80 175 1.0 3.0 0.00 0.00 0.00 84 1013.5
20260903115532 80 230 0.0 3.0 0.00 0.00 0.00 84 1013.7
20260903115031 80 230 0.0 2.0 0.00 0.00 0.00 84 1013.6
20260903114533 81 230 0.0 3.0 0.00 0.00 0.00 84 1013.7
20260903114030 81 230 0.0 7.0 0.00 0.00 0.00 84 1013.7
20260903113530 81 223 1.0 7.0 0.00 0.00 0.00 84 1013.7
20260903113031 81 198 1.0 5.0 0.00 0.00 0.00 85 1013.6
20260903112529 81 213 2.0 5.0 0.00 0.00 0.00 85 1013.7
20260903112029 81 182 0.0 3.0 0.00 0.00 0.00 85 1013.7
20260903111529 81 189 0.0 4.0 0.00 0.00 0.00 85 1013.7
20260903111028 81 191 0.0 4.0 0.00 0.00 0.00 85 1013.6
20260903110529 81 184 0.0 3.0 0.00 0.00 0.00 85 1013.6
20260903110028 81 180 0.0 4.0 0.00 0.00 0.00 85 1013.6
20260903105528 81 179 2.0 4.0 0.00 0.00 0.00 85 1013.5
20260903105028 81 202 1.0 4.0 0.00 0.00 0.00 85 1013.5
20260903104530 81 202 1.0 4.0 0.00 0.00 0.00 85 1013.5
20260903104032 81 200 0.0 5.0 0.00 0.00 0.00 85 1013.4
20260903103528 81 201 1.0 5.0 0.00 0.00 0.00 85 1013.4
20260903103027 81 188 1.0 4.0 0.00 0.00 0.00 85 1013.3
20260903102526 81 182 0.0 4.0 0.00 0.00 0.00 85 1013.3
20260903102028 81 183 1.0 3.0 0.00 0.00 0.00 85 1013.2
20260903101531 81 186 1.0 3.0 0.00 0.00 0.00 85 1013.2
20260903101025 81 182 1.0 3.0 0.00 0.00 0.00 85 1013.3
20260903100527 81 182 0.0 3.0 0.00 0.00 0.00 85 1013.3
20260903100030 81 182 0.0 3.0 0.00 0.00 0.00 85 1013.3